User: anonymous   Login
Location: Unspecified
(0.0000°N, 0.0000°E)
Time: 17:56:27
(UTC+00:00)
Language:

Azur - Orbit

View from above orbital plane
View from above orbital plane
View from above satellite
View from above satellite

Ground track
Ground track

The orbit data is extracted from the following two-line orbital elements,

1  4221U 69097A   18344.20517752  .00003642  00000-0  17270-3 0  9994
2  4221 102.6909  97.8327 0626603 211.5911 144.6175 14.25821303326207
Epoch (UTC): 10 December 2018 04:55:27
Eccentricity: 0.0626603
inclination: 102.6909°
perigee height: 355 km
apogee height: 1256 km
right ascension of ascending node: 97.8327°
argument of perigee: 211.5911°
revolutions per day: 14.25821303
mean anomaly at epoch: 144.6175°
orbit number at epoch: 32620

The dashed part of the orbit path shows where the satellite is in the earth's shadow,  

DLR